Flagstaff, AZ

4:13 AM MST on May 25, 2017 (GMT -0700)
Flagstaff Pulliam

Weather History for KFLG - July, 2013

Change the Weather History Date:

Monday, July 22, 2013

  Actual Average Record
Temperature  
Mean Temperature 64 °F 67 °F  
Max Temperature 72 °F 81 °F 92 °F (1996)
Min Temperature 55 °F 52 °F 38 °F (1995)
Degree Days  
Heating Degree Days 1 1  
Month to date heating degree days 6 27  
Since 1 July heating degree days 6 27  
Cooling Degree Days 0 2  
Month to date cooling degree days 68 44  
Year to date cooling degree days 118 61  
Growing Degree Days 14 (Base 50)    
Moisture  
Dew Point 56 °F    
Average Humidity 75    
Maximum Humidity 97    
Minimum Humidity 53    
Precipitation  
Precipitation 0.16 in 0.10 in 1.51 in (1962)
Month to date precipitation 4.72 1.60  
Year to date precipitation 9.98 10.07  
Snow  
Snow 0.00 in 0.00 in 0.00 in (2002)
Month to date snowfall 0.0 0.0  
Since 1 July snowfall 0.0 0.0  
Snow Depth 0.00 in    
Sea Level Pressure  
Sea Level Pressure 30.08 in    
Wind  
Wind Speed 3 mph (WSW)    
Max Wind Speed 17 mph    
Max Gust Speed 24 mph    
Visibility 9 miles    
Events Rain , Thunderstorm    
T = Trace of Precipitation, MM = Missing Value Source: NWS Daily Summary

Daily Weather History Graph

Daily Weather History Graph

Search for Another Location

Airport or City:

Trip Planner

Search our weather history database for the weather conditions in past years. The results will help you decide how hot, cold, wet, or windy it might be!

Date:

Astronomy

Jul. 22, 2013 Rise Set
Actual Time 5:28 AM MST 7:37 PM MST
Civil Twilight 5:00 AM MST 8:05 PM MST
Nautical Twilight 4:25 AM MST 8:40 PM MST
Astronomical Twilight 3:47 AM MST 9:18 PM MST
Moon 7:29 PM MST (7/22) 5:26 AM MST (7/22)
Length of Visible Light 15h 05m
Length of Day
14h 08m
Full, 100% of the Moon is Illuminated
Jul 22
Full
Jul 29
Last Quarter
Aug 6
New
Aug 14
First Quarter
Aug 20
Full

Hourly Weather History & Observations

Time (MST) Temp. Dew Point Humidity Pressure Visibility Wind Dir Wind Speed Gust Speed Precip Events Conditions
12:57 AM 59.0 °F 54.0 °F 83% 29.98 in 10.0 mi Calm Calm - N/A   Overcast
1:57 AM 57.0 °F 54.0 °F 89% 29.97 in 10.0 mi Calm Calm - N/A   Mostly Cloudy
2:57 AM 55.9 °F 53.1 °F 90% 29.97 in 10.0 mi Calm Calm - N/A   Clear
3:57 AM 55.9 °F 53.1 °F 90% 29.95 in 10.0 mi Calm Calm - N/A   Clear
4:57 AM 55.0 °F 53.1 °F 93% 29.97 in 10.0 mi Calm Calm - N/A   Clear
5:57 AM 55.9 °F 53.1 °F 90% 29.99 in 10.0 mi Calm Calm - N/A   Scattered Clouds
6:03 AM 55.4 °F 53.6 °F 94% 30.28 in 10.0 mi Calm Calm - N/A   Mostly Cloudy
6:10 AM 55.4 °F 53.6 °F 94% 30.28 in 10.0 mi Calm Calm - N/A   Mostly Cloudy
6:31 AM 57.2 °F 55.4 °F 94% 30.29 in 10.0 mi WSW 4.6 mph - N/A   Mostly Cloudy
6:57 AM 59.0 °F 55.9 °F 90% 30.01 in 10.0 mi Calm Calm - N/A   Overcast
7:27 AM 59.0 °F 57.2 °F 94% 30.31 in 4.0 mi West 3.5 mph - N/A   Overcast
7:55 AM 60.8 °F 57.2 °F 88% 30.32 in 10.0 mi Variable 3.5 mph - N/A   Overcast
7:57 AM 61.0 °F 57.0 °F 87% 30.04 in 10.0 mi West 3.5 mph - N/A   Overcast
8:50 AM 64.4 °F 57.2 °F 77% 30.31 in 10.0 mi West 6.9 mph - N/A   Overcast
8:57 AM 64.9 °F 57.0 °F 75% 30.01 in 10.0 mi Variable 5.8 mph - N/A   Mostly Cloudy
9:57 AM 68.0 °F 57.0 °F 68% 30.01 in 10.0 mi Variable 4.6 mph - N/A   Mostly Cloudy
10:57 AM 69.1 °F 55.0 °F 61% 30.03 in 10.0 mi WNW 5.8 mph - N/A   Overcast
11:57 AM 70.0 °F 55.9 °F 61% 30.03 in 10.0 mi Calm Calm - N/A   Overcast
12:57 PM 72.0 °F 54.0 °F 53% 29.99 in 10.0 mi North 6.9 mph - N/A   Overcast
1:18 PM 69.8 °F 53.6 °F 56% 30.30 in 10.0 mi Variable 5.8 mph - N/A Thunderstorm Thunderstorm
1:42 PM 62.6 °F 59.0 °F 88% 30.31 in 4.0 mi WSW 10.4 mph - 0.03 in Rain , Thunderstorm Thunderstorms and Rain
1:57 PM 63.0 °F 60.1 °F 90% 30.05 in 3.0 mi SSW 6.9 mph - 0.08 in Rain , Thunderstorm Thunderstorms and Rain
2:57 PM 61.0 °F 59.0 °F 93% 30.05 in 9.0 mi SSW 4.6 mph - 0.07 in Rain Light Rain
3:57 PM 64.0 °F 61.0 °F 90% 30.03 in 10.0 mi SSW 5.8 mph - 0.01 in   Overcast
4:57 PM 68.0 °F 59.0 °F 73% 30.00 in 10.0 mi SW 10.4 mph - N/A   Clear
5:57 PM 66.9 °F 60.1 °F 79% 30.00 in 10.0 mi WSW 6.9 mph - N/A   Partly Cloudy
6:57 PM 64.9 °F 59.0 °F 81% 29.99 in 10.0 mi Calm Calm - N/A   Partly Cloudy
7:57 PM 63.0 °F 57.0 °F 81% 30.00 in 10.0 mi Calm Calm - N/A   Clear
8:57 PM 62.1 °F 57.9 °F 86% 30.02 in 10.0 mi SW 5.8 mph - N/A   Mostly Cloudy
9:57 PM 61.0 °F 57.9 °F 90% 30.03 in 10.0 mi West 3.5 mph - N/A   Overcast
10:57 PM 62.1 °F 55.9 °F 80% 30.03 in 10.0 mi Calm Calm - N/A   Overcast
11:57 PM 61.0 °F 57.0 °F 87% 30.03 in 10.0 mi Calm Calm - N/A   Overcast